INMARSAT 4-F2 (SOUTHPA*)

Last updated on Sun Apr 12 2026 00:03:34 GMT+0000 (Coordinated Universal Time)

1 28899U 05044A 26101.26392264 -.00000256 00000+0 00000+0 0 9995 2 28899 5.0058 43.7518 0003584 358.8574 35.3820 1.00270891 74857
UTC large
Height (km)
Speed (km/s)
/
Latitude / Longitude
Inclination (degrees)
Orbital Period (minutes)
Azimuth
Elevation
Range (km)
Doppler Factor

Next 0 passes for location: London (51.5072 / 0.1276)

Sorry there are no passes over London.
INMARSAT 4-F2 (SOUTHPA*)